Russell, KS

4:37 AM CST on December 05, 2016 (GMT -0600)
Russell Municipal

Weather History for KRSL - August, 2013

Change the Weather History Date:

Saturday, August 17, 2013

  Actual Average Record
Temperature  
Mean Temperature 72 °F -  
Max Temperature 79 °F 92 °F 107 °F (1978)
Min Temperature 64 °F 67 °F 52 °F (2012)
Cooling Degree Days 6    
Growing Degree Days 22 (Base 50)    
Moisture  
Dew Point 62 °F    
Average Humidity 76    
Maximum Humidity 93    
Minimum Humidity 58    
Precipitation  
Precipitation 0.00 in - - ()
Sea Level Pressure  
Sea Level Pressure 30.09 in    
Wind  
Wind Speed 12 mph (SE)    
Max Wind Speed 17 mph    
Max Gust Speed 30 mph    
Visibility 10 miles    
Events      
Averages and records for this station are not official NWS values.
T = Trace of Precipitation, MM = Missing Value Source: NWS Daily Summary

Daily Weather History Graph

Daily Weather History Graph

Search for Another Location

Airport or City:

Trip Planner

Search our weather history database for the weather conditions in past years. The results will help you decide how hot, cold, wet, or windy it might be!

Date:

Astronomy

Aug. 17, 2013 Rise Set
Actual Time 6:50 AM CDT 8:26 PM CDT
Civil Twilight 6:22 AM CDT 8:55 PM CDT
Nautical Twilight 5:48 AM CDT 9:29 PM CDT
Astronomical Twilight 5:12 AM CDT 10:05 PM CDT
Moon 5:42 PM CDT (8/17) 2:56 AM CDT (8/17)
Length of Visible Light 14h 32m
Length of Day
13h 35m
Waxing Gibbous, 84% of the Moon is Illuminated
Aug 17
Waxing Gibbous
Aug 20
Full
Aug 28
Last Quarter
Sep 5
New
Sep 12
First Quarter

Hourly Weather History & Observations

Time (CDT) Temp. Dew Point Humidity Pressure Visibility Wind Dir Wind Speed Gust Speed Precip Events Conditions
12:53 AM 68.0 °F 63.0 °F 84% 30.10 in 10.0 mi SE 12.7 mph - N/A   Overcast
1:53 AM 66.9 °F 63.0 °F 87% 30.11 in 10.0 mi SE 8.1 mph - N/A   Scattered Clouds
2:53 AM 66.0 °F 63.0 °F 90% 30.11 in 9.0 mi SE 8.1 mph - N/A   Mostly Cloudy
3:53 AM 64.9 °F 63.0 °F 93% 30.11 in 8.0 mi SE 8.1 mph - N/A   Mostly Cloudy
4:53 AM 64.9 °F 62.1 °F 90% 30.10 in 8.0 mi SE 8.1 mph - N/A   Overcast
5:53 AM 64.9 °F 62.1 °F 90% 30.10 in 9.0 mi SSE 11.5 mph - N/A   Overcast
6:53 AM 64.9 °F 61.0 °F 87% 30.11 in 10.0 mi SSE 11.5 mph - N/A   Overcast
7:53 AM 64.9 °F 61.0 °F 87% 30.12 in 10.0 mi SSE 13.8 mph - N/A   Mostly Cloudy
8:53 AM 66.0 °F 62.1 °F 87% 30.13 in 10.0 mi SSE 12.7 mph - N/A   Overcast
9:53 AM 66.9 °F 62.1 °F 84% 30.14 in 10.0 mi SSE 9.2 mph - N/A   Overcast
10:53 AM 69.1 °F 63.0 °F 81% 30.13 in 10.0 mi SSE 12.7 mph - N/A   Overcast
11:53 AM 72.0 °F 64.0 °F 76% 30.12 in 10.0 mi SSE 15.0 mph - N/A   Overcast
12:53 PM 75.0 °F 64.0 °F 69% 30.10 in 10.0 mi SSE 17.3 mph 29.9 mph N/A   Mostly Cloudy
1:53 PM 78.1 °F 64.0 °F 62% 30.08 in 10.0 mi South 12.7 mph 24.2 mph N/A   Mostly Cloudy
2:53 PM 79.0 °F 64.0 °F 60% 30.06 in 10.0 mi SE 17.3 mph 23.0 mph N/A   Scattered Clouds
3:53 PM 78.1 °F 63.0 °F 60% 30.05 in 10.0 mi SE 12.7 mph - N/A   Mostly Cloudy
4:53 PM 79.0 °F 63.0 °F 58% 30.04 in 10.0 mi ESE 16.1 mph - N/A   Overcast
5:53 PM 77.0 °F 62.1 °F 60% 30.05 in 10.0 mi SSE 16.1 mph - N/A   Overcast
6:53 PM 75.9 °F 62.1 °F 62% 30.04 in 10.0 mi SE 12.7 mph - N/A   Mostly Cloudy
7:53 PM 75.0 °F 62.1 °F 64% 30.04 in 10.0 mi SE 10.4 mph - N/A   Overcast
8:53 PM 72.0 °F 63.0 °F 73% 30.05 in 10.0 mi SE 9.2 mph - N/A   Overcast
9:53 PM 70.0 °F 62.1 °F 76% 30.06 in 10.0 mi SE 13.8 mph - N/A   Mostly Cloudy
10:53 PM 68.0 °F 62.1 °F 81% 30.08 in 10.0 mi SE 11.5 mph - N/A   Partly Cloudy
11:53 PM 68.0 °F 59.0 °F 73% 30.08 in 10.0 mi SE 13.8 mph - N/A   Mostly Cloudy